Home   Weather   Manama   Past weeks

Flag for Bahrain Past Weather in Manama, Bahrain — Yesterday and Last 2 Weeks

Now
90 °F

Sunny.


Feels Like: 87 °F
Forecast: 78 / 91 °F
Wind: 2 mph from Northeast

Location: Bahrain International Airport

Current Time: Apr 28, 2017 at 7:56:51 am

Latest Report: Apr 28, 2017 at 7:30 am


Visibility: 10 mi

Pressure: 29.83 "Hg

Humidity: 29%

Dew Point: 54 °F

Location of ManamaLocation

Past Weather in Manama — Graph

°F

Manama Temperature Yesterday

Maximum temperature yesterday: 93 °F (at 2:30 pm)
Minimum temperature yesterday: 79 °F (at 3:00 am)
Average temperature yesterday: 85 °F

High & Low Weather Summary for the Past Weeks

 TemperatureHumidityPressure
High102 °F (Apr 14, 11:00 am)79% (Apr 19, 5:30 am)29.95 "Hg (Apr 19, 5:30 am)
Low73 °F (Apr 23, 5:30 am)12% (Apr 15, 11:30 am)29.71 "Hg (Apr 15, 2:30 am)
Average83 °F51%29.82 "Hg
* Reported Apr 13 6:00 am — Apr 28 6:30 am, Manama, Weather by CustomWeather, © 2017

Note: Actual official high and low records may vary slightly from our data, if they occured in-between our weather recording intervals... More about our weather records

Advertising

Manama Weather History for the Previous 24 Hours

Scroll right to see more
 ConditionsComfort  
Time TempWeatherWind HumidityBarometerVisibility
6:30 am
Fri, Apr 28
82 °FSunny.2 mph48%29.83 "Hg10 mi
6:00 am81 °FSunny.2 mph62%29.80 "Hg10 mi
5:30 am81 °FSunny.3 mph66%29.80 "Hg10 mi
5:00 am79 °FClear.3 mph70%29.80 "Hg10 mi
4:30 am79 °FClear.5 mph74%29.80 "Hg10 mi
3:30 am81 °FClear.5 mph62%29.80 "Hg10 mi
2:30 am82 °FClear.9 mph55%29.80 "Hg10 mi
1:30 am82 °FPassing clouds.6 mph51%29.80 "HgN/A
1:00 am82 °FClear.5 mph45%29.80 "Hg10 mi
12:30 am82 °FClear.5 mph51%29.80 "Hg10 mi
12:00 am82 °FClear.8 mph51%29.80 "Hg10 mi
11:30 pm
Thu, Apr 27
82 °FClear.7 mph55%29.83 "Hg10 mi
11:00 pm82 °FClear.3 mph55%29.83 "Hg10 mi
10:30 pm82 °FClear.7 mph58%29.83 "Hg10 mi
10:00 pm84 °FClear.9 mph55%29.83 "Hg10 mi
9:00 pm84 °FClear.6 mph48%29.83 "Hg10 mi
8:00 pm84 °FClear.7 mph55%29.80 "Hg10 mi
7:30 pm82 °FClear.9 mph58%29.80 "Hg10 mi
7:00 pm84 °FClear.10 mph51%29.80 "Hg10 mi
6:30 pm86 °FClear.6 mph46%29.80 "Hg10 mi
6:00 pm86 °FSunny.7 mph40%29.80 "Hg10 mi
5:30 pm90 °FSunny.8 mph31%29.80 "Hg10 mi
5:00 pm90 °FSunny.9 mph31%29.80 "Hg10 mi
4:30 pm91 °FSunny.9 mph30%29.80 "Hg10 mi
3:30 pm91 °FSunny.12 mph30%29.80 "Hg10 mi
3:00 pm93 °FPassing clouds.9 mph26%29.80 "HgN/A
2:30 pm93 °FSunny.10 mph26%29.80 "Hg10 mi
1:30 pm91 °FSunny.10 mph34%29.83 "Hg10 mi
12:30 pm91 °FSunny.12 mph30%29.83 "Hg10 mi
12:00 pm90 °FSunny.12 mph36%29.86 "Hg10 mi
11:30 am90 °FSunny.13 mph33%29.86 "Hg10 mi
11:00 am90 °FSunny.12 mph38%29.86 "Hg10 mi
10:30 am90 °FSunny.12 mph41%29.86 "Hg10 mi
10:00 am88 °FSunny.13 mph43%29.89 "Hg10 mi
9:00 am86 °FSunny.14 mph46%29.86 "Hg10 mi
8:30 am86 °FSunny.14 mph46%29.86 "Hg10 mi
8:00 am86 °FPassing clouds.9 mph43%29.83 "HgN/A
7:30 am84 °FSunny.8 mph48%29.83 "Hg10 mi
Weather by CustomWeather, © 2017

See weather overviewHow to use our weather pages